{"data":{"norad_id":61751,"epoch":"2026-09-22T21:42:13.546944Z","epoch_age_seconds":92314,"freshness":"FRESH","line1":"1 61751U 24199S   26265.90432346  .00006811  00000+0  18244-3 0  9994","line2":"2 61751  97.2831 134.6612 0008035 325.0706  35.0012 15.38303998152158","mean_motion":15.38303998,"eccentricity":0.0008035,"inclination_deg":97.2831,"raan_deg":134.6612,"arg_perigee_deg":325.0706,"mean_anomaly_deg":35.0012,"bstar":0.00018244,"rev_number":15215,"period_min":93.609585743273,"perigee_km":445.63697095135,"apogee_km":456.61159383215,"semimajor_km":6829.2612823917,"source":"CELESTRAK","updated_at":"2026-09-23T09:00:21.026976Z"}}